Location: Huberhof
(49.2050°N, 7.4980°E)
Time: 01:08:17
(UTC+00:00)

ATLAS 2AS CENTAUR R/B - Pass Details

Date: 29 October 2020
Orbit: 939 x 1273 km, 63.7° (Epoch: 23 November)

Event Time Altitude Azimuth Distance (km) Brightness Sun altitude
Rises 20:04:38 0° 316° (NW) 4,129 6.6 -37.7°
Reaches altitude 10° 20:07:37 10° 310° (NW) 3,117 5.8 -38.1°
Enters shadow 20:13:44 41° 258° (WSW) 1,590 3.7 -39.0°
